EW5004 Weather Reports


Display with metric or nautical units.
time (UTC)temp
F
wind
direction
speed
MPH
gust
MPH
rain 1hr
in
rain 24hr
in
rain mn
in
humidity
%
barometer
mb
20260906134528 68 149 4.0 5.0 0.00 0.00 0.00 16 1017.3
20260906133027 66 156 2.0 4.0 0.00 0.00 0.00 100 1017.2
20260906131521 65 157 2.0 5.0 0.00 0.00 0.00 100 1017.2
20260906130016 63 144 2.0 4.0 0.00 0.00 0.00 100 1017.2
20260906124510 62 196 0.0 2.0 0.00 0.00 0.00 100 1017.0
20260906123015 60 200 0.0 0.0 0.00 0.00 0.00 100 1017.1
20260906121501 58 200 0.0 0.0 0.00 0.00 0.00 100 1016.8
20260906120100 57 200 0.0 0.0 0.00 0.00 0.00 100 1016.7
20260906114624 56 200 0.0 0.0 0.00 0.00 0.00 100 1016.6
20260906113049 55 200 0.0 0.0 0.00 0.00 0.00 100 1016.6
20260906111546 54 200 0.0 0.0 0.00 0.00 0.00 100 1016.3
20260906110046 54 200 0.0 0.0 0.00 0.00 0.00 100 1016.3
20260906104536 54 200 0.0 0.0 0.00 0.00 0.00 100 1016.2
20260906103031 55 200 0.0 0.0 0.00 0.00 0.00 100 1016.1
20260906101530 55 200 0.0 0.0 0.00 0.00 0.00 100 1016.0
20260906100029 55 200 0.0 0.0 0.00 0.00 0.00 100 1016.0
20260906094517 55 200 0.0 0.0 0.00 0.00 0.00 100 1015.9
20260906093021 55 200 0.0 0.0 0.00 0.00 0.00 100 1015.7
20260906091508 55 200 0.0 0.0 0.00 0.00 0.00 100 1015.6
20260906090010 55 200 0.0 0.0 0.00 0.00 0.00 100 1015.7
20260906084607 55 200 0.0 0.0 0.00 0.00 0.00 100 1015.6
20260906083055 56 200 0.0 0.0 0.00 0.00 0.00 100 1015.4
20260906081554 56 200 0.0 0.0 0.00 0.00 0.00 100 1015.2
20260906080053 56 200 0.0 0.0 0.00 0.00 0.00 100 1015.1
20260906074605 56 200 0.0 0.0 0.00 0.00 0.00 100 1015.1
20260906073104 56 200 0.0 0.0 0.00 0.00 0.00 100 1015.0
20260906071543 56 200 0.0 0.0 0.00 0.00 0.00 100 1014.8
20260906070041 56 200 0.0 0.0 0.00 0.00 0.00 100 1014.8
20260906064535 57 200 0.0 0.0 0.00 0.00 0.00 100 1014.7
20260906063043 57 200 0.0 0.0 0.00 0.00 0.00 100 1014.9
20260906061526 57 200 0.0 1.0 0.00 0.00 0.00 100 1014.9
20260906060022 57 200 0.0 0.0 0.00 0.00 0.00 100 1015.0
20260906054517 57 200 0.0 0.0 0.00 0.00 0.00 100 1015.0
20260906053012 58 200 0.0 0.0 0.00 0.00 0.00 100 1015.0
20260906051508 58 200 0.0 0.0 0.00 0.00 0.00 100 1014.9
20260906050003 58 200 0.0 0.0 0.00 0.00 0.00 100 1014.8
20260906044559 58 200 0.0 0.0 0.00 0.00 0.00 100 1014.8
20260906043101 59 200 0.0 0.0 0.00 0.00 0.00 100 1014.8
20260906041552 59 89 0.0 0.0 0.00 0.00 0.00 100 1014.8
20260906040046 59 88 0.0 0.0 0.00 0.00 0.00 100 1014.8
20260906034604 59 88 0.0 0.0 0.00 0.00 0.00 100 1014.7
20260906033037 59 88 0.0 0.0 0.00 0.00 0.00 100 1014.6
20260906031539 59 88 0.0 0.0 0.00 0.00 0.00 100 1014.5
20260906030028 60 88 0.0 0.0 0.00 0.00 0.00 100 1014.5
20260906024524 60 86 0.0 0.0 0.00 0.00 0.00 100 1014.4
20260906023020 60 86 0.0 0.0 0.00 0.00 0.00 100 1014.4
20260906021515 60 86 0.0 0.0 0.00 0.00 0.00 100 1014.4
20260906020017 61 86 0.0 0.0 0.00 0.00 0.00 100 1014.3
20260906014506 61 86 0.0 0.0 0.00 0.00 0.00 100 1014.3
20260906013002 61 86 0.0 0.0 0.00 0.00 0.00 100 1014.3
20260906011558 62 86 0.0 0.0 0.00 0.00 0.00 100 1014.1
20260906010055 62 86 0.0 0.0 0.00 0.00 0.00 100 1014.0
20260906004548 63 86 0.0 0.0 0.00 0.00 0.00 100 1013.9
20260906003044 64 86 0.0 0.0 0.00 0.00 0.00 3 1013.7
20260906001540 65 86 0.0 0.0 0.00 0.00 0.00 21 1013.5
20260906000036 68 86 0.0 2.0 0.00 0.00 0.00 43 1013.3
20260905234530 69 86 2.0 4.0 0.00 0.00 0.00 57 1013.3
20260905233033 70 74 1.0 7.0 0.00 0.00 0.00 59 1013.4
20260905231527 71 61 1.0 4.0 0.00 0.00 0.00 61 1013.4
20260905230022 71 111 2.0 8.0 0.00 0.00 0.00 61 1013.4
20260905224513 72 90 4.0 8.0 0.00 0.00 0.00 61 1013.5
20260905223009 73 88 4.0 8.0 0.00 0.00 0.00 61 1013.4
20260905221506 73 140 4.0 7.0 0.00 0.00 0.00 60 1013.5
20260905220113 73 106 6.0 8.0 0.00 0.00 0.00 60 1013.4
20260905214558 73 96 4.0 9.0 0.00 0.00 0.00 58 1013.3
20260905213051 74 120 4.0 10.0 0.00 0.00 0.00 59 1013.2
20260905211547 74 102 3.0 8.0 0.00 0.00 0.00 58 1013.0
20260905210055 74 106 6.0 10.0 0.00 0.00 0.00 56 1013.0
20260905204539 74 157 6.0 10.0 0.00 0.00 0.00 55 1013.1
20260905203041 73 123 7.0 13.0 0.00 0.00 0.00 55 1013.2
20260905201530 74 94 7.0 12.0 0.00 0.00 0.00 59 1013.2
20260905200027 73 89 5.0 11.0 0.00 0.00 0.00 59 1013.3
20260905194521 73 70 7.0 12.0 0.00 0.00 0.00 61 1013.3
20260905193017 73 85 8.0 18.0 0.00 0.00 0.00 60 1013.4
20260905191512 73 95 9.0 17.0 0.00 0.00 0.00 61 1013.5
20260905190009 73 102 7.0 12.0 0.00 0.00 0.00 61 1013.5
20260905184508 73 146 9.0 16.0 0.00 0.00 0.00 61 1013.5
20260905183102 74 131 7.0 14.0 0.00 0.00 0.00 60 1013.5
20260905181627 73 82 7.0 17.0 0.00 0.00 0.00 61 1013.5
20260905180051 74 88 8.0 13.0 0.00 0.00 0.00 60 1013.4
20260905174548 74 142 8.0 13.0 0.00 0.00 0.00 60 1013.6
20260905173041 74 131 4.0 9.0 0.00 0.00 0.00 58 1013.6
20260905171550 74 30 3.0 9.0 0.00 0.00 0.00 58 1013.8
20260905170033 74 96 5.0 13.0 0.00 0.00 0.00 56 1013.9
20260905164528 74 133 3.0 12.0 0.00 0.00 0.00 58 1013.7
20260905163030 74 73 5.0 11.0 0.00 0.00 0.00 55 1013.8
20260905161518 73 130 7.0 13.0 0.00 0.00 0.00 55 1014.0
20260905160014 73 128 6.0 11.0 0.00 0.00 0.00 51 1013.9
20260905154509 73 144 6.0 11.0 0.00 0.00 0.00 52 1013.8
20260905153005 72 121 5.0 13.0 0.00 0.00 0.00 49 1013.7
20260905151501 73 111 6.0 15.0 0.00 0.00 0.00 49 1013.7
20260905150105 72 140 2.0 10.0 0.00 0.00 0.00 44 1013.6
20260905144552 72 91 4.0 9.0 0.00 0.00 0.00 37 1013.6
20260905143052 71 187 7.0 12.0 0.00 0.00 0.00 26 1013.5
20260905141544 70 157 5.0 9.0 0.00 0.00 0.00 15 1013.5
20260905140040 70 156 4.0 9.0 0.00 0.00 0.00 17 1013.4